Time,TemperatureF,DewpointF,PressureIn,WindDirection,WindDirectionDegrees,WindSpeedMPH,WindSpeedGustMPH,Humidity,HourlyPrecipIn,Conditions,Clouds,dailyrainin,SoftwareType,DateUTC
2013-03-24 00:03:00,27.0,23.0,29.93,North,0,2.0,3.0,83,0.00,,,0.00,,2013-03-24 04:03:00,
2013-03-24 00:13:00,27.0,23.0,29.93,North,0,2.0,3.0,83,0.00,,,0.00,,2013-03-24 04:13:00,
2013-03-24 00:23:00,27.0,23.0,29.92,North,0,2.0,2.0,83,0.00,,,0.00,,2013-03-24 04:23:00,
2013-03-24 00:33:00,27.0,23.0,29.92,North,0,0.0,4.0,83,0.00,,,0.00,,2013-03-24 04:33:00,
2013-03-24 00:43:00,27.0,23.0,29.92,North,0,0.0,4.0,83,0.00,,,0.00,,2013-03-24 04:43:00,
2013-03-24 00:53:00,27.0,23.0,29.91,North,0,2.0,3.0,84,0.00,,,0.00,,2013-03-24 04:53:00,
2013-03-24 01:02:00,27.0,23.0,29.89,North,0,1.0,4.0,84,0.00,,,0.00,,2013-03-24 05:02:00,
2013-03-24 01:13:00,27.0,23.0,29.89,North,0,1.0,4.0,84,0.00,,,0.00,,2013-03-24 05:13:00,
2013-03-24 01:23:00,27.0,23.0,29.89,North,0,1.0,3.0,83,0.00,,,0.00,,2013-03-24 05:23:00,
2013-03-24 01:32:00,27.0,23.0,29.90,North,0,0.0,3.0,83,0.00,,,0.00,,2013-03-24 05:32:00,
2013-03-24 01:43:00,27.0,23.0,29.90,North,0,0.0,3.0,83,0.00,,,0.00,,2013-03-24 05:43:00,
2013-03-24 01:52:00,27.0,23.0,29.91,North,0,0.0,2.0,83,0.00,,,0.00,,2013-03-24 05:52:00,
2013-03-24 02:02:00,26.0,22.0,29.90,North,0,2.0,3.0,84,0.00,,,0.00,,2013-03-24 06:02:00,
2013-03-24 02:12:00,26.0,22.0,29.90,North,0,2.0,3.0,84,0.00,,,0.00,,2013-03-24 06:12:00,
2013-03-24 02:22:00,27.0,23.0,29.89,North,0,2.0,4.0,83,0.00,,,0.00,,2013-03-24 06:22:00,
2013-03-24 02:32:00,27.0,23.0,29.89,North,0,1.0,3.0,83,0.00,,,0.00,,2013-03-24 06:32:00,
2013-03-24 02:42:00,27.0,23.0,29.89,North,0,1.0,3.0,83,0.00,,,0.00,,2013-03-24 06:42:00,
2013-03-24 02:52:00,27.0,23.0,29.88,North,0,3.0,3.0,83,0.00,,,0.00,,2013-03-24 06:52:00,
2013-03-24 03:02:00,27.0,23.0,29.88,North,0,2.0,4.0,84,0.00,,,0.00,,2013-03-24 07:02:00,
2013-03-24 03:12:00,27.0,23.0,29.88,North,0,2.0,4.0,84,0.00,,,0.00,,2013-03-24 07:12:00,
2013-03-24 03:22:00,27.0,23.0,29.88,North,0,2.0,4.0,84,0.00,,,0.00,,2013-03-24 07:22:00,
2013-03-24 03:32:00,27.0,23.0,29.88,North,0,1.0,4.0,84,0.00,,,0.00,,2013-03-24 07:32:00,
2013-03-24 03:42:00,27.0,23.0,29.88,North,0,1.0,4.0,84,0.00,,,0.00,,2013-03-24 07:42:00,
2013-03-24 03:52:00,27.0,23.0,29.89,North,0,0.0,3.0,84,0.00,,,0.00,,2013-03-24 07:52:00,
2013-03-24 04:03:00,27.0,23.0,29.88,North,0,1.0,3.0,84,0.00,,,0.00,,2013-03-24 08:03:00,
2013-03-24 04:12:00,27.0,23.0,29.88,North,0,1.0,3.0,84,0.00,,,0.00,,2013-03-24 08:12:00,
2013-03-24 04:22:00,27.0,23.0,29.88,North,0,2.0,5.0,84,0.00,,,0.00,,2013-03-24 08:22:00,
2013-03-24 04:32:00,27.0,23.0,29.88,North,0,0.0,3.0,84,0.00,,,0.00,,2013-03-24 08:32:00,
2013-03-24 04:42:00,27.0,23.0,29.88,North,0,0.0,3.0,84,0.00,,,0.00,,2013-03-24 08:42:00,
2013-03-24 04:52:00,27.0,23.0,29.87,North,0,0.0,3.0,84,0.00,,,0.00,,2013-03-24 08:52:00,
2013-03-24 05:02:00,27.0,23.0,29.87,North,0,1.0,3.0,84,0.00,,,0.00,,2013-03-24 09:02:00,
2013-03-24 05:12:00,27.0,23.0,29.87,North,0,1.0,3.0,84,0.00,,,0.00,,2013-03-24 09:12:00,
2013-03-24 05:22:00,27.0,23.0,29.87,North,0,0.0,3.0,84,0.00,,,0.00,,2013-03-24 09:22:00,
2013-03-24 05:33:00,26.0,22.0,29.86,North,0,2.0,2.0,85,0.00,,,0.00,,2013-03-24 09:33:00,
2013-03-24 05:42:00,26.0,22.0,29.86,North,0,2.0,2.0,85,0.00,,,0.00,,2013-03-24 09:42:00,
2013-03-24 05:53:00,26.0,22.0,29.86,North,0,2.0,4.0,86,0.00,,,0.00,,2013-03-24 09:53:00,
2013-03-24 06:03:00,26.0,22.0,29.86,North,0,0.0,3.0,86,0.00,,,0.00,,2013-03-24 10:03:00,
2013-03-24 06:12:00,26.0,22.0,29.86,North,0,0.0,3.0,86,0.00,,,0.00,,2013-03-24 10:12:00,
2013-03-24 06:23:00,26.0,22.0,29.86,North,0,0.0,2.0,86,0.00,,,0.00,,2013-03-24 10:23:00,
2013-03-24 06:33:00,26.0,22.0,29.85,North,0,2.0,2.0,86,0.00,,,0.00,,2013-03-24 10:33:00,
2013-03-24 06:42:00,26.0,22.0,29.85,North,0,2.0,2.0,86,0.00,,,0.00,,2013-03-24 10:42:00,
2013-03-24 06:52:00,26.0,23.0,29.85,North,0,3.0,3.0,87,0.00,,,0.00,,2013-03-24 10:52:00,
2013-03-24 07:03:00,26.0,23.0,29.85,North,0,2.0,3.0,87,0.00,,,0.00,,2013-03-24 11:03:00,
2013-03-24 07:12:00,26.0,23.0,29.85,North,0,2.0,3.0,87,0.00,,,0.00,,2013-03-24 11:12:00,
2013-03-24 07:22:00,26.0,23.0,29.84,North,0,2.0,4.0,88,0.00,,,0.00,,2013-03-24 11:22:00,
2013-03-24 07:33:00,26.0,23.0,29.84,North,0,2.0,4.0,88,0.00,,,0.00,,2013-03-24 11:33:00,
2013-03-24 07:42:00,26.0,23.0,29.84,North,0,2.0,4.0,88,0.00,,,0.00,,2013-03-24 11:42:00,
2013-03-24 07:52:00,26.0,23.0,29.83,North,0,3.0,4.0,88,0.00,,,0.00,,2013-03-24 11:52:00,
2013-03-24 08:03:00,26.0,23.0,29.83,North,0,3.0,7.0,88,0.00,,,0.00,,2013-03-24 12:03:00,
2013-03-24 08:12:00,26.0,23.0,29.83,North,0,3.0,7.0,88,0.00,,,0.00,,2013-03-24 12:12:00,
2013-03-24 08:22:00,26.0,23.0,29.82,North,0,4.0,6.0,88,0.00,,,0.00,,2013-03-24 12:22:00,
2013-03-24 08:32:00,27.0,24.0,29.83,North,0,2.0,6.0,88,0.00,,,0.00,,2013-03-24 12:32:00,
2013-03-24 08:42:00,27.0,24.0,29.83,North,0,2.0,6.0,88,0.00,,,0.00,,2013-03-24 12:42:00,
2013-03-24 08:52:00,27.0,24.0,29.82,North,0,5.0,8.0,87,0.00,,,0.00,,2013-03-24 12:52:00,
2013-03-24 09:02:00,28.0,25.0,29.80,North,0,4.0,9.0,87,0.00,,,0.00,,2013-03-24 13:02:00,
2013-03-24 09:13:00,28.0,25.0,29.80,North,0,4.0,9.0,87,0.00,,,0.00,,2013-03-24 13:13:00,
2013-03-24 09:22:00,28.0,24.0,29.78,North,0,6.0,10.0,86,0.00,,,0.00,,2013-03-24 13:22:00,
2013-03-24 09:32:00,28.0,24.0,29.77,North,0,4.0,11.0,85,0.00,,,0.00,,2013-03-24 13:32:00,
2013-03-24 09:42:00,28.0,24.0,29.77,North,0,4.0,11.0,85,0.00,,,0.00,,2013-03-24 13:42:00,
2013-03-24 09:52:00,29.0,25.0,29.78,North,0,4.0,8.0,85,0.00,,,0.00,,2013-03-24 13:52:00,
2013-03-24 10:02:00,29.0,25.0,29.77,North,0,4.0,9.0,84,0.00,,,0.00,,2013-03-24 14:02:00,
2013-03-24 10:12:00,29.0,25.0,29.77,North,0,4.0,9.0,84,0.00,,,0.00,,2013-03-24 14:12:00,
2013-03-24 10:22:00,29.0,25.0,29.75,North,0,5.0,11.0,83,0.00,,,0.00,,2013-03-24 14:22:00,
2013-03-24 10:32:00,29.0,25.0,29.73,North,0,6.0,9.0,84,0.00,,,0.00,,2013-03-24 14:32:00,
2013-03-24 10:42:00,29.0,25.0,29.73,North,0,6.0,9.0,84,0.00,,,0.00,,2013-03-24 14:42:00,
2013-03-24 10:53:00,30.0,26.0,29.73,North,0,5.0,10.0,84,0.00,,,0.00,,2013-03-24 14:53:00,
2013-03-24 11:02:00,30.0,25.0,29.71,North,0,7.0,11.0,83,0.00,,,0.00,,2013-03-24 15:02:00,
2013-03-24 11:12:00,30.0,25.0,29.71,North,0,7.0,11.0,83,0.00,,,0.00,,2013-03-24 15:12:00,
2013-03-24 11:22:00,30.0,25.0,29.72,North,0,5.0,10.0,82,0.00,,,0.00,,2013-03-24 15:22:00,
2013-03-24 11:33:00,31.0,26.0,29.71,North,0,9.0,10.0,81,0.00,,,0.00,,2013-03-24 15:33:00,
2013-03-24 11:43:00,31.0,26.0,29.71,North,0,9.0,10.0,81,0.00,,,0.00,,2013-03-24 15:43:00,
2013-03-24 11:53:00,31.0,25.0,29.70,North,0,9.0,10.0,78,0.00,,,0.00,,2013-03-24 15:53:00,
2013-03-24 12:03:00,31.0,23.0,29.68,North,0,9.0,13.0,73,0.00,,,0.00,,2013-03-24 16:03:00,
2013-03-24 12:13:00,31.0,23.0,29.68,North,0,9.0,13.0,73,0.00,,,0.00,,2013-03-24 16:13:00,
2013-03-24 12:23:00,32.0,24.0,29.68,North,0,8.0,12.0,73,0.00,,,0.00,,2013-03-24 16:23:00,
2013-03-24 12:33:00,32.0,23.0,29.68,North,0,4.0,13.0,69,0.00,,,0.00,,2013-03-24 16:33:00,
2013-03-24 12:42:00,32.0,23.0,29.68,North,0,4.0,13.0,69,0.00,,,0.00,,2013-03-24 16:42:00,
2013-03-24 12:52:00,34.0,25.0,29.68,North,0,7.0,10.0,68,0.00,,,0.00,,2013-03-24 16:52:00,
2013-03-24 13:02:00,34.0,24.0,29.68,North,0,7.0,10.0,67,0.00,,,0.00,,2013-03-24 17:02:00,
2013-03-24 13:12:00,34.0,24.0,29.68,North,0,7.0,10.0,67,0.00,,,0.00,,2013-03-24 17:12:00,
2013-03-24 13:23:00,34.0,23.0,29.67,North,0,10.0,13.0,65,0.00,,,0.00,,2013-03-24 17:23:00,
2013-03-24 13:33:00,34.0,23.0,29.67,North,0,5.0,13.0,65,0.00,,,0.00,,2013-03-24 17:33:00,
2013-03-24 13:42:00,34.0,23.0,29.67,North,0,5.0,13.0,65,0.00,,,0.00,,2013-03-24 17:42:00,
2013-03-24 13:53:00,34.0,23.0,29.66,North,0,4.0,10.0,63,0.00,,,0.00,,2013-03-24 17:53:00,
2013-03-24 14:03:00,34.0,23.0,29.64,North,0,8.0,12.0,64,0.00,,,0.00,,2013-03-24 18:03:00,
2013-03-24 14:12:00,34.0,23.0,29.64,North,0,8.0,12.0,64,0.00,,,0.00,,2013-03-24 18:12:00,
2013-03-24 14:22:00,34.0,23.0,29.64,North,0,6.0,12.0,64,0.00,,,0.00,,2013-03-24 18:22:00,
2013-03-24 14:33:00,34.0,23.0,29.64,North,0,4.0,10.0,65,0.00,,,0.00,,2013-03-24 18:33:00,
2013-03-24 14:43:00,34.0,23.0,29.64,North,0,4.0,10.0,65,0.00,,,0.00,,2013-03-24 18:43:00,
2013-03-24 14:52:00,34.0,23.0,29.63,North,0,3.0,10.0,65,0.00,,,0.00,,2013-03-24 18:52:00,
2013-03-24 15:02:00,34.0,23.0,29.62,North,0,4.0,10.0,64,0.00,,,0.00,,2013-03-24 19:02:00,
2013-03-24 15:12:00,34.0,23.0,29.62,North,0,4.0,10.0,64,0.00,,,0.00,,2013-03-24 19:12:00,
2013-03-24 15:22:00,34.0,23.0,29.62,North,0,8.0,12.0,65,0.00,,,0.00,,2013-03-24 19:22:00,
2013-03-24 15:32:00,35.0,24.0,29.60,ENE,60,5.0,10.0,64,0.00,,,0.00,,2013-03-24 19:32:00,
2013-03-24 15:43:00,35.0,24.0,29.60,ENE,60,5.0,10.0,64,0.00,,,0.00,,2013-03-24 19:43:00,
2013-03-24 15:53:00,35.0,24.0,29.59,ENE,59,7.0,12.0,63,0.00,,,0.00,,2013-03-24 19:53:00,
2013-03-24 16:03:00,35.0,24.0,29.56,ENE,61,8.0,16.0,63,0.00,,,0.00,,2013-03-24 20:03:00,
2013-03-24 16:12:00,35.0,24.0,29.56,ENE,61,8.0,16.0,63,0.00,,,0.00,,2013-03-24 20:12:00,
2013-03-24 16:22:00,35.0,24.0,29.56,ENE,61,8.0,14.0,63,0.00,,,0.00,,2013-03-24 20:22:00,
2013-03-24 16:32:00,35.0,24.0,29.56,ENE,59,7.0,13.0,63,0.00,,,0.00,,2013-03-24 20:32:00,
2013-03-24 16:42:00,35.0,24.0,29.56,ENE,59,7.0,13.0,63,0.00,,,0.00,,2013-03-24 20:42:00,
2013-03-24 16:53:00,35.0,24.0,29.55,ENE,65,7.0,13.0,64,0.00,,,0.00,,2013-03-24 20:53:00,
2013-03-24 17:02:00,35.0,24.0,29.55,ENE,65,9.0,13.0,64,0.00,,,0.00,,2013-03-24 21:02:00,
2013-03-24 17:12:00,35.0,24.0,29.55,ENE,65,9.0,13.0,64,0.00,,,0.00,,2013-03-24 21:12:00,
2013-03-24 17:22:00,35.0,23.0,29.54,NE,42,7.0,15.0,62,0.00,,,0.00,,2013-03-24 21:22:00,
2013-03-24 17:33:00,35.0,23.0,29.53,ENE,58,9.0,14.0,62,0.00,,,0.00,,2013-03-24 21:33:00,
2013-03-24 17:43:00,35.0,23.0,29.53,ENE,58,9.0,14.0,62,0.00,,,0.00,,2013-03-24 21:43:00,
2013-03-24 17:53:00,35.0,23.0,29.52,NE,46,10.0,16.0,61,0.00,,,0.00,,2013-03-24 21:53:00,
2013-03-24 18:03:00,35.0,23.0,29.52,East,88,6.0,11.0,61,0.00,,,0.00,,2013-03-24 22:03:00,
2013-03-24 18:13:00,35.0,23.0,29.52,East,88,6.0,11.0,61,0.00,,,0.00,,2013-03-24 22:13:00,
2013-03-24 18:23:00,35.0,23.0,29.50,East,90,7.0,15.0,61,0.00,,,0.00,,2013-03-24 22:23:00,
2013-03-24 18:33:00,35.0,23.0,29.49,NNE,26,5.0,13.0,62,0.00,,,0.00,,2013-03-24 22:33:00,
2013-03-24 18:43:00,35.0,23.0,29.49,NNE,26,5.0,13.0,62,0.00,,,0.00,,2013-03-24 22:43:00,
2013-03-24 18:53:00,35.0,23.0,29.49,NNE,16,7.0,9.0,62,0.00,,,0.00,,2013-03-24 22:53:00,
2013-03-24 19:03:00,35.0,23.0,29.50,NNE,19,5.0,10.0,62,0.00,,,0.00,,2013-03-24 23:03:00,
2013-03-24 19:12:00,35.0,23.0,29.50,NNE,19,5.0,10.0,62,0.00,,,0.00,,2013-03-24 23:12:00,
2013-03-24 19:22:00,34.0,23.0,29.50,NNE,30,7.0,11.0,63,0.00,,,0.00,,2013-03-24 23:22:00,
2013-03-24 19:32:00,34.0,23.0,29.49,NE,54,9.0,11.0,64,0.00,,,0.00,,2013-03-24 23:32:00,
2013-03-24 19:42:00,34.0,23.0,29.49,NE,54,9.0,11.0,64,0.00,,,0.00,,2013-03-24 23:42:00,
2013-03-24 19:53:00,34.0,23.0,29.49,NNE,22,7.0,9.0,65,0.00,,,0.00,,2013-03-24 23:53:00,
2013-03-24 20:02:00,34.0,24.0,29.49,NE,46,4.0,5.0,67,0.00,,,0.00,,2013-03-25 00:02:00,
2013-03-24 20:12:00,34.0,24.0,29.49,NE,46,4.0,5.0,67,0.00,,,0.00,,2013-03-25 00:12:00,
2013-03-24 20:22:00,33.0,24.0,29.49,NNE,24,4.0,7.0,69,0.00,,,0.00,,2013-03-25 00:22:00,
2013-03-24 20:32:00,32.0,24.0,29.49,North,11,3.0,7.0,72,0.00,,,0.00,,2013-03-25 00:32:00,
2013-03-24 20:42:00,32.0,24.0,29.49,North,11,3.0,7.0,72,0.00,,,0.00,,2013-03-25 00:42:00,
2013-03-24 20:53:00,32.0,25.0,29.48,NNE,14,4.0,8.0,74,0.00,,,0.00,,2013-03-25 00:53:00,
2013-03-24 21:02:00,32.0,25.0,29.47,NNE,22,4.0,7.0,74,0.00,,,0.00,,2013-03-25 01:02:00,
2013-03-24 21:12:00,32.0,25.0,29.47,NNE,22,4.0,7.0,74,0.00,,,0.00,,2013-03-25 01:12:00,
2013-03-24 21:22:00,32.0,24.0,29.47,ENE,61,7.0,12.0,71,0.00,,,0.00,,2013-03-25 01:22:00,
2013-03-24 21:32:00,33.0,24.0,29.46,ENE,58,4.0,11.0,70,0.00,,,0.00,,2013-03-25 01:32:00,
2013-03-24 21:42:00,33.0,24.0,29.46,ENE,58,4.0,11.0,70,0.00,,,0.00,,2013-03-25 01:42:00,
2013-03-24 21:53:00,33.0,25.0,29.45,East,86,8.0,13.0,71,0.00,,,0.00,,2013-03-25 01:53:00,
2013-03-24 22:02:00,33.0,25.0,29.44,East,90,7.0,11.0,71,0.00,,,0.00,,2013-03-25 02:02:00,
2013-03-24 22:12:00,33.0,25.0,29.44,East,90,7.0,11.0,71,0.00,,,0.00,,2013-03-25 02:12:00,
2013-03-24 22:22:00,33.0,25.0,29.43,NE,55,3.0,9.0,72,0.00,,,0.00,,2013-03-25 02:22:00,
2013-03-24 22:33:00,33.0,25.0,29.43,East,92,5.0,9.0,71,0.00,,,0.00,,2013-03-25 02:33:00,
2013-03-24 22:42:00,33.0,25.0,29.43,East,92,5.0,9.0,71,0.00,,,0.00,,2013-03-25 02:42:00,
2013-03-24 22:52:00,33.0,25.0,29.42,ENE,65,7.0,10.0,71,0.00,,,0.00,,2013-03-25 02:52:00,
2013-03-24 23:02:00,33.0,25.0,29.42,ENE,58,3.0,10.0,72,0.00,,,0.00,,2013-03-25 03:02:00,
2013-03-24 23:13:00,33.0,25.0,29.42,ENE,58,3.0,10.0,72,0.00,,,0.00,,2013-03-25 03:13:00,
2013-03-24 23:23:00,33.0,25.0,29.41,East,82,9.0,11.0,72,0.00,,,0.00,,2013-03-25 03:23:00,
2013-03-24 23:33:00,33.0,25.0,29.40,NE,40,8.0,12.0,72,0.00,,,0.00,,2013-03-25 03:33:00,
2013-03-24 23:43:00,33.0,25.0,29.39,ENE,68,5.0,8.0,72,0.00,,,0.00,,2013-03-25 03:43:00,
2013-03-24 23:53:00,33.0,25.0,29.39,ENE,68,5.0,8.0,72,0.00,,,0.00,,2013-03-25 03:53:00,